Miscellaneous Local Product
Issued by NWS North Platte, NE

Home | Current Version | Previous Version | Text Only | Print | Product List | Glossary On
Versions: 1 2 3 4 5 6 7 8 9 10 11 12 13 14 15 16 17 18 19 20 21 22 23 24 25 26 27 28 29 30 31 32 33 34 35 36 37 38 39 40 41 42 43 44 45 46 47 48 49 50
656
AXUS43 KLBF 271810
MISLBF


WESTERN AND NORTH CENTRAL NEBRASKA HOURLY WEATHER ROUNDUP
NATIONAL WEATHER SERVICE NORTH PLATTE NE
100 PM CDT SAT MAY 27 2017

NOTE: "FAIR" INDICATES FEW OR NO CLOUDS BELOW 12,000 FEET WITH NO
SIGNIFICANT WEATHER AND/OR OBSTRUCTIONS TO VISIBILITY.

NOTE: STATIONS NOT REPORTING VARIABLES SUCH AS SKY/WEATHER OR
PRESSURE ARE PROVIDED BY RAWS AND APRS NETWORKS AND ARE NOT UNDER
NATIONAL WEATHER SERVICE QUALITY CONTROL.

...OBSERVATIONS IN AND NEAR THE EASTERN PANHANDLE OF NEBRASKA...

CITY           SKY/WX    TMP DP  RH WIND       PRES   REMARKS
PINE RIDGE     MOSUNNY   63  42  46 N10       30.04S
GORDON         CLOUDY    60  45  56 N9        30.04S
CHADRON        MOSUNNY   65  44  46 VRB3      30.05S
ALLIANCE       CLOUDY    57  43  59 N13       30.06R
SIDNEY         CLOUDY    58  47  66 N14       30.08S
CRESCENT LAKE    N/A     59  47  64 N10         N/A
$$

...OBSERVATIONS IN NORTHERN NEBRASKA AND FAR SOUTHERN SOUTH DAKOTA...

CITY           SKY/WX    TMP DP  RH WIND       PRES   REMARKS
WINNER         CLOUDY    62  53  72 VRB5      30.00S
VALENTINE      CLOUDY    58  48  69 NW3       30.03R
THEDFORD       DRIZZLE   54  51  89 N6        30.04S
AINSWORTH      LGT RAIN  54  54  99 N6        30.03F
O`NEILL        CLOUDY    63  51  66 NW10      30.00S
ORD            PTSUNNY   68  47  46 VRB3      29.95S
BROKEN BOW     CLOUDY    63  52  67 N10       29.99R
VALENTINE NWR    N/A     55  50  83 NE6         N/A
HALSEY           N/A     55  51  88 NW6G13      N/A
BUTTE            N/A     57  52  83 W6          N/A
CHAMBERS         N/A     69  55  60 N3          N/A
EWING            N/A     66  57  73 N7          N/A
$$

...OBSERVATIONS IN SOUTHWEST NEBRASKA AND FAR NORTHEAST COLORADO...

CITY           SKY/WX    TMP DP  RH WIND       PRES   REMARKS
WRAY           CLOUDY    63  48  59 N15G21    30.05S
IMPERIAL       PTSUNNY   62  52  69 N12       30.03R
OGALLALA       CLOUDY    60  52  75 N9        30.05S
NORTH PLATTE   CLOUDY    61  55  81 N14       30.00S
MCCOOK         CLOUDY    66  56  70 NW18      29.97R
LEXINGTON      PTSUNNY   69  54  60 NE9       29.96S
STAPLETON        N/A     58  53  83 CALM        N/A
GOTHENBURG       N/A     66  47  51 N6          N/A
CALLAWAY         N/A     61  54  78 N10         N/A
$$

...OBSERVATIONS IN CENTRAL LINCOLN COUNTY AREA...

CITY           SKY/WX    TMP DP  RH WIND       PRES   REMARKS
N.P. AIRPORT   CLOUDY    61  55  81 N14       30.00S
N.P. DOWNTOWN    N/A     60  53  79 N5          N/A
N.P. SOUTHEAST   N/A     60  52  74 N5G12       N/A
N.P. HILLCREST   N/A     59  52  78 N10         N/A
$$

...SOME OBSERVATIONS FROM AROUND THE REGION...

CITY           SKY/WX    TMP DP  RH WIND       PRES   REMARKS
DENVER         CLOUDY    58  40  51 NE15G24   30.09F
LIMON          CLOUDY    60  42  51 N25       30.10R
ASPEN          CLOUDY    43  38  82 CALM      30.21S
LARAMIE        CLOUDY    44  36  73 N17       30.18R
CASPER         MOSUNNY   56  34  43 W7        30.16R
CHEYENNE       MOSUNNY   50  37  61 N10       30.14S
SCOTTSBLUFF    CLOUDY    61  43  51 N12       30.08S
GRAND ISLAND   SUNNY     72  49  44 NE14      29.93R
OMAHA          PTSUNNY   68  57  68 VRB7      29.88S
SIOUX FALLS    CLOUDY    63  53  70 SW7       29.96S
PIERRE         SUNNY     67  47  48 SW6G18    29.94F
RAPID CITY     MOSUNNY   68  37  32 N15G22    30.01F
BISMARCK       PTSUNNY   70  39  32 W17G25    29.85F
KANSAS CITY    LGT RAIN  64  60  87 E23G31    29.73F
HILL CITY      CLOUDY    70  59  68 NW14      29.93R
WICHITA        PTSUNNY   77  60  55 NE22G30   29.80F
DODGE CITY     CLOUDY    73  55  53 N13       29.92R
OKLAHOMA CITY  PTSUNNY   91  68  46 S15       29.77S HX  95
DALLAS         PTSUNNY   91  75  59 S18       29.83S HX 101
AMARILLO       SUNNY     78  51  38 NW14      29.96R
$$




USA.gov is the U.S. government's official web portal to all federal, state and local government web resources and services.